RWASAT-1 (44790 NORAD) Tracking and Keplerian Element Data

This shows tracking and keplerian element data for the satellite.

Feedback or suggestion? Click here.




ElementValue
Catalog44790
NameRWASAT-1
Epoch Orbit13783
Epoch Day111.47078999
Epoch Year2022
RAAN187.4205
Inclination51.6207
Eccentricity0.0011154
Argument of Perigee353.6723
Mean Anonmoly102.859
Mean Motion16.08483638
Decay Rate0.00102887
L11 44790U 98067QV 22111.47078999 .00102887 16547-4 11951-3 0 9997
L22 44790 51.6207 187.4205 0011154 353.6723 102.8590 16.08483638137839



Live tracking and technical data element details for RWASAT-1 (NORAD 44790). RWASAT-1 can be tracked NOW for your location showing map with azimuth and elevation plus other details from your city location.







IsCatalogInMostPopularTable: catalog: 44790, numindb: 289
Update: records affected: 1



GetName: 44790 RWASAT-1

Hit Count: updated at: Thu, 15 May 2025 10:52:40 GMT